Left ArrowRight Arrow

33.98154, -81.23621

Hourly Observations for June 17, 2024

Temp ( °F °C ) Dew Point ( °F °C ) Humidity (%) Winds ( mph kmh ) Pressure ( in mb ) Visibility ( mi km ) Precip ( " mm )
12:56 am 00:56 Mostly Clear 78 25.6 74 23.3 87 87 ESE 5 7 30.14 1021 10 16 0.00 0.00
1:56 am 01:56 Partly Cloudy 77 25 73 22.8 88 88 Calm 30.13 1020 10 16 0.00 0.00
2:56 am 02:56 Mostly Clear 76 24.4 73 22.8 91 91 ESE 5 7 30.13 1020 10 16 0.00 0.00
3:56 am 03:56 Mostly Clear 75 23.9 73 22.8 94 94 ESE 5 7 30.11 1020 10 16 0.00 0.00
4:56 am 04:56 Partly Cloudy 74 23.3 73 22.8 97 97 E 6 9 30.12 1020 9 14 0.00 0.00
5:56 am 05:56 Partly Cloudy 74 23.3 72 22.2 94 94 ENE 5 7 30.14 1021 10 16 0.00 0.00
6:56 am 06:56 Partly Cloudy 74 23.3 72 22.2 94 94 E 5 7 30.15 1021 10 16 0.00 0.00
7:56 am 07:56 Partly Cloudy 75 23.9 72 22.2 90 90 E 8 13 30.17 1022 7 11 0.00 0.00
8:28 am 08:28 Cloudy 76 24.4 72 22.2 88 88 ENE 7 11 30.18 1022 10 16 0.00 0.00
8:56 am 08:56 Cloudy 77 25 72 22.2 84 84 E 7 11 30.19 1022 10 16 0.00 0.00
9:56 am 09:56 Mostly Cloudy 79 26.1 72 22.2 79 79 E 8 13 30.19 1022 10 16 0.00 0.00
10:08 am 10:08 Cloudy 79 26.1 72 22.2 79 79 ESE 8 13 30.19 1022 10 16 0.00 0.00
10:56 am 10:56 Cloudy 81 27.2 72 22.2 74 74 ESE 7 11 30.19 1022 10 16 0.00 0.00
11:56 am 11:56 Mostly Cloudy 86 30 72 22.2 63 63 E 6 9 30.18 1022 10 16 0.00 0.00
12:56 pm 12:56 Mostly Cloudy 86 30 71 21.7 61 61 VRB 3 6 30.17 1022 10 16 0.00 0.00
1:56 pm 13:56 Mostly Cloudy 88 31.1 72 22.2 59 59 E 8 13 30.15 1021 10 16 0.00 0.00
2:56 pm 14:56 Mostly Cloudy 88 31.1 72 22.2 59 59 SE 9 15 30.14 1021 10 16 0.00 0.00
3:56 pm 15:56 Mostly Cloudy 90 32.2 70 21.1 52 52 SE 12 19 30.12 1020 10 16 0.00 0.00
4:56 pm 16:56 Partly Cloudy 91 32.8 69 20.6 49 49 E 13 20 30.10 1019 10 16 0.00 0.00
5:56 pm 17:56 Partly Cloudy 89 31.7 70 21.1 54 54 SE 10 17 30.08 1019 10 16 0.00 0.00
6:56 pm 18:56 Partly Cloudy 88 31.1 69 20.6 54 54 SE 10 17 30.07 1018 10 16 0.00 0.00
7:56 pm 19:56 Partly Cloudy 86 30 69 20.6 57 57 SE 10 17 30.08 1019 10 16 0.00 0.00
8:56 pm 20:56 Mostly Clear 83 28.3 69 20.6 63 63 SE 9 15 30.09 1019 10 16 0.00 0.00
9:56 pm 21:56 Partly Cloudy 81 27.2 65 18.3 58 58 ESE 9 15 30.12 1020 10 16 0.00 0.00
10:56 pm 22:56 Partly Cloudy 79 26.1 65 18.3 62 62 ESE 9 15 30.14 1021 10 16 0.00 0.00
11:56 pm 23:56 Partly Cloudy 77 25 65 18.3 66 66 E 5 7 30.15 1021 10 16 0.00 0.00

Powered by Vaisala Xweather